Skip Page Navigation
NASA JPL Caltech
NASA Logo - Jet Propulsion Laboratory + View the NASA Portal
+ Center for Near-Earth Object Studies
JPL Home Earth Solar System Stars & Galaxies Technology
JPL Solar System Dynamics
BODIES ORBITS EPHEMERIDES TOOLS PHYSICAL DATA DISCOVERY FAQ SITE MAP
IMPORTANT: The SSD Announcement email list is now available. Major changes are coming in the near future, including possible hostname and/or URL changes. To be notified of such changes, subscribe to this email list.

Please visit this page for more details.


JPL Small-Body Database Browser
Search: [ help ]  
324129 (2005 YX52)
Classification: Main-belt Asteroid          SPK-ID: 2324129
Ephemeris | Orbit Diagram | Orbital Elements | Mission Design | Physical Parameters | Discovery Circumstances | Close-Approach Data ]

[ show orbit diagram ]
Orbital Elements at Epoch 2459000.5 (2020-May-31.0) TDB
Reference: JPL 13 (heliocentric ecliptic J2000)
 Element Value Uncertainty (1-sigma)   Units 
e .04274223539725894 6.644e-08  
a 2.97076184881802 4.0234e-08 au
q 2.843784846566644 2.0159e-07 au
i 8.762935519137859 5.163e-06 deg
node 280.1278757147433 5.4313e-05 deg
peri 228.7805622222728 0.00010124 deg
M 261.2344640682269 8.9207e-05 deg
tp 2459513.601291449458
(2021-Oct-26.10129145)
0.00046937 TDB
period 1870.252241119882
5.12
3.7994e-05
1.04e-07
d
yr
n .1924874046852828 3.9104e-09 deg/d
Q 3.097738851069396 4.1954e-08 au
  Orbit Determination Parameters
   # obs. used (total)      216  
   data-arc span      5180 days (14.18 yr)  
   first obs. used      2005-09-30  
   last obs. used      2019-12-06  
   planetary ephem.      DE431  
   SB-pert. ephem.      SB431-N16  
   condition code      0  
   norm. resid. RMS      .53496  
   source      ORB  
   producer      Otto Matic  
   solution date      2019-Dec-14 19:31:24  

Additional Information
 Earth MOID = 1.86524 au 
 Jupiter MOID = 1.98767 au 
 T_jup = 3.244 
[ show covariance matrix ]

Ephemeris | Orbit Diagram | Orbital Elements | Mission Design | Physical Parameters | Discovery Circumstances | Close-Approach Data ]

Physical Parameter Table
Parameter Symbol Value Units Sigma Reference Notes
absolute magnitude H 15.6   n/a MPO494714  

324129 (2005 YX52)          Discovered 2005-Sep-30 by Mt. Lemmon Survey at Mount Lemmon
Reference: 20120406/Numbers.arcLast Updated: 2012-04-09

[ show close-approach data ]
Ephemeris | Orbit Diagram | Orbital Elements | Mission Design | Physical Parameters | Discovery Circumstances | Close-Approach Data ]
ABOUT SSD CREDITS/AWARDS PRIVACY/COPYRIGHT GLOSSARY LINKS
FirstGov 2020-May-27 22:29 UT
(server date/time)  
NASA Home Page
Site Manager:   Ryan S. Park
Webmaster  Alan B. Chamberlin